Regional Weather Roundup
Issued by NWS Albany, NY

Home | Current Version | Previous Version | Text Only | Print | Product List | Glossary On
Versions: 1 2 3 4 5 6 7 8 9 10 11 12 13 14 15 16 17 18 19 20 21 22 23 24 25 26 27 28 29 30 31 32 33 34 35 36 37 38 39 40 41 42 43 44 45 46 47 48 49 50
000
ASUS41 KALY 271510
RWRALY

NEW YORK STATE HOURLY WEATHER ROUNDUP
NATIONAL WEATHER SERVICE ALBANY NY
1100 AM EDT MON APR 27 2015

NOTE: "FAIR" INDICATES FEW OR NO CLOUDS BELOW 12,000 FEET WITH NO
SIGNIFICANT WEATHER AND/OR NO OBSTRUCTIONS TO VISIBILITY.

NYZ032-033-038>043-046>054-057>066-NYZ062>081-271600-
EAST


CITY           SKY/WX    TMP DP  RH WIND       PRES   REMARKS
ALBANY         PTSUNNY   54  36  50 NW9       29.69S
GLENS FALLS    CLOUDY    51  38  60 E10       29.68S
POUGHKEEPSIE   CLOUDY    57  35  43 N13G24    29.67S
MONTGOMERY     CLOUDY    55  34  45 NW10      29.68R
WHITE PLAINS   PTSUNNY   55  33  43 NW13G22   29.65S
ISLIP          MOSUNNY   56  34  43 NW10      29.64F
NEW YORK CITY  MOSUNNY   55  33  43 NW8       29.67F
CENTRAL PARK   SUNNY     57  30  35 NW9       29.70S
$$

NYZ005>009-017-018-044>046-055-056-271600-
CENTRAL


CITY           SKY/WX    TMP DP  RH WIND       PRES   REMARKS
FULTON         CLOUDY    44  35  70 NW9       29.81R
SYRACUSE       CLOUDY    47  36  65 NW13      29.79R
ROME           CLOUDY    47  36  65 W13       29.76S
ELMIRA         CLOUDY    47  36  65 VRB5      29.78R
BINGHAMTON     CLOUDY    43  34  70 N15       29.74R
MONTICELLO     CLOUDY    48  32  53 NW9G20    29.70S
$$

NYZ026>034-041>043-271600-
NORTH


CITY           SKY/WX    TMP DP  RH WIND       PRES   REMARKS
WATERTOWN      CLOUDY    46  35  65 N7        29.79R
FORT DRUM      NOT AVBL
MASSENA        CLOUDY    49  39  68 NW6       29.78S
SARANAC LAKE   CLOUDY    40  35  83 W7        29.70R
PLATTSBURGH    LGT RAIN  47  40  76 N13       29.73R
$$

NYZ001>004-010>016-019>021-271600-
WEST


CITY           SKY/WX    TMP DP  RH WIND       PRES   REMARKS
NIAGARA FALLS  CLOUDY    42  36  79 N9        29.86R
BUFFALO        LGT RAIN  41  37  86 N10       29.85R
DUNKIRK        LGT RAIN  40  39  97 N10       29.88R FOG     WCI  33
JAMESTOWN      CLOUDY    37  34  87 NW8       29.83R WCI  31
WELLSVILLE     CLOUDY    41  34  76 W10       29.79R
ROCHESTER      CLOUDY    42  35  76 N14       29.84R
PENN YAN       CLOUDY    43  36  76 NW7       29.80R
$$

             KEY
       WCI = WIND CHILL INDEX
       VSB = VISIBILITY
       HX  = HEAT INDEX
$$



USA.gov is the U.S. government's official web portal to all federal, state and local government web resources and services.